Weather History for Lincoln, NE

Change the Weather History Date:

Thursday, December 15, 2011

  Actual Average Record
Temperature  
Mean Temperature 27 °F 26 °F  
Max Temperature 35 °F 37 °F 64 °F (2002)
Min Temperature 18 °F 16 °F -15 °F (1989)
Degree Days  
Heating Degree Days 38 39  
Month to date heating degree days 607 548  
Since 1 July heating degree days 1831 1809  
Cooling Degree Days 0 0  
Month to date cooling degree days 0 0  
Year to date cooling degree days 1296 1173  
Moisture  
Dew Point 22 °F    
Average Humidity 74    
Maximum Humidity 92    
Minimum Humidity 56    
Precipitation  
Precipitation 0.00 in 0.03 in 2.13 in (1984)
Month to date precipitation 1.56 0.52  
Year to date precipitation 29.15 28.52  
Snow  
Snow 0.00 in 0.20 in - ()
Month to date snowfall 4.6 2.8  
Since 1 July snowfall 4.6 5.6  
Snow Depth 0.00 in    
Sea Level Pressure  
Sea Level Pressure 30.25 in    
Wind  
Wind Speed 10 mph (NW)    
Max Wind Speed 25 mph    
Max Gust Speed 31 mph    
Visibility 10 miles    
Events      
T = Trace of Precipitation, MM = Missing Value Source: NWS Daily Summary

Daily Weather History Graph

Daily Weather History Graph

Search for Another Location

Airport:

Trip Planner

Search our weather history database for the weather conditions in past years. The results will help you decide how hot, cold, wet, or windy it might be!

Date:

Astronomy

Dec. 15, 2011 Rise Set
Actual Time 7:44 AM CST 5:00 PM CST
Civil Twilight 7:13 AM CST 5:31 PM CST
Nautical Twilight 6:38 AM CST 6:05 PM CST
Astronomical Twilight 6:05 AM CST 6:38 PM CST
Moon 10:29 PM CST (12/15) 10:59 AM CST (12/15)
Length of Visible Light 10h 17m
Length of Day
9h 15m
Waning Gibbous, 74% of the Moon is Illuminated
Dec 15
Waning Gibbous
Dec 17
Last Quarter
Dec 24
New
Jan 1
First Quarter
Jan 9
Full

Hourly Weather History & Observations

Time (CST) Temp. Windchill Dew Point Humidity Pressure Visibility Wind Dir Wind Speed Gust Speed Precip Events Conditions
12:54 AM 30.9 °F - 28.9 °F 92% 29.98 in 7.0 mi Calm Calm - N/A   Clear
1:54 AM 33.1 °F 24.9 °F 28.0 °F 82% 29.99 in 10.0 mi NW 10.4 mph - N/A   Clear
2:54 AM 32.0 °F 24.8 °F 28.0 °F 85% 30.04 in 10.0 mi NW 8.1 mph - N/A   Clear
3:16 AM 32.0 °F 25.6 °F 28.4 °F 87% 30.03 in 10.0 mi WNW 6.9 mph - N/A   Mostly Cloudy
3:54 AM 33.1 °F 22.2 °F 27.0 °F 78% 30.07 in 10.0 mi NW 17.3 mph - N/A   Mostly Cloudy
4:54 AM 32.0 °F 19.8 °F 24.1 °F 73% 30.12 in 10.0 mi NNW 20.7 mph 29.9 mph N/A   Overcast
5:54 AM 30.2 °F 17.8 °F 23.0 °F 75% 30.13 in 10.0 mi NW 19.6 mph 29.9 mph N/A   Overcast
6:46 AM 30.2 °F 20.2 °F 23.0 °F 75% 30.14 in 10.0 mi NNW 12.7 mph - N/A   Partly Cloudy
6:54 AM 30.0 °F 20.0 °F 23.0 °F 75% 30.18 in 10.0 mi NNW 12.7 mph - N/A   Partly Cloudy
7:54 AM 28.0 °F 18.6 °F 21.9 °F 78% 30.22 in 10.0 mi NW 10.4 mph - N/A   Clear
8:54 AM 28.4 °F 18.0 °F 21.2 °F 74% 30.22 in 10.0 mi NW 12.7 mph - N/A   Clear
9:54 AM 30.9 °F 19.8 °F 21.0 °F 67% 30.29 in 10.0 mi NNW 16.1 mph 20.7 mph N/A   Clear
10:54 AM 33.1 °F 21.2 °F 21.0 °F 61% 30.30 in 10.0 mi NNW 20.7 mph 27.6 mph N/A   Clear
11:54 AM 34.0 °F 23.4 °F 21.0 °F 59% 30.31 in 10.0 mi NNW 17.3 mph - N/A   Partly Cloudy
12:54 PM 33.8 °F 22.5 °F 21.2 °F 60% 30.27 in 10.0 mi NNW 19.6 mph 25.3 mph N/A   Partly Cloudy
1:54 PM 35.1 °F 25.2 °F 21.9 °F 59% 30.30 in 10.0 mi NNW 16.1 mph - N/A   Clear
2:54 PM 35.1 °F 26.9 °F 21.9 °F 59% 30.31 in 10.0 mi NNW 11.5 mph - N/A   Clear
3:54 PM 34.0 °F 24.6 °F 21.0 °F 59% 30.34 in 10.0 mi NNW 13.8 mph - N/A   Clear
4:54 PM 32.0 °F 23.0 °F 21.9 °F 66% 30.35 in 10.0 mi NNW 11.5 mph - N/A   Clear
5:54 PM 30.0 °F 25.2 °F 21.0 °F 69% 30.38 in 10.0 mi NW 4.6 mph - N/A   Clear
6:54 PM 27.0 °F - 19.9 °F 75% 30.41 in 10.0 mi Calm Calm - N/A   Clear
7:54 PM 24.1 °F - 19.0 °F 81% 30.43 in 10.0 mi Calm Calm - N/A   Clear
8:54 PM 21.9 °F - 19.0 °F 89% 30.45 in 10.0 mi Calm Calm - N/A   Clear
9:54 PM 18.0 °F 12.7 °F 15.1 °F 88% 30.45 in 10.0 mi North 3.5 mph - N/A   Clear
10:54 PM 19.9 °F - 18.0 °F 92% 30.45 in 10.0 mi Calm Calm - N/A   Clear
11:54 PM 19.9 °F - 18.0 °F 92% 30.46 in 10.0 mi Calm Calm - N/A   Clear